Hourly Data Report for August 31, 2017

QUALICUM BEACH AIRPORT
BRITISH COLUMBIA

49°20'14.000" N
124°23'38.000" W
58.20 m
1026562
71766
VOQ

Download Data

Hourly Data (August 2017)
Hourly Data Report for August 31, 2017
TIME
LST
Temp Definition
°C
Dew Point Definition
°C
Rel Hum Definition
%
Precip. Amount Definition
mm

Wind Dir Definition
10's deg

Wind Spd Definition
km/h
Visibility Definition
km
Stn Press Definition
kPa
Hmdx Definition


Wind Chill Definition


Weather Definition


00:00 14.5 13.9 96 0.0 29 3   101.09     LegendNANA
01:00 14.2 13.6 97 0.0 28 5   101.13     LegendNANA
02:00 13.3 12.7 96 0.0 27 6   101.17     LegendNANA
03:00 11.6 11.0 96 0.0 0 1   101.18     LegendNANA
04:00 13.1 12.5 96 0.0 30 2   101.22     LegendNANA
05:00 12.5 11.9 96 0.0 25 2   101.26     LegendNANA
06:00 12.8 12.2 96 0.0 27 4   101.28     LegendNANA
07:00 14.6 13.3 92 0.0 28 3   101.33     LegendNANA
08:00 17.3 12.2 72 0.0 32 12   101.38     LegendNANA
09:00 17.7 12.3 71 0.0 32 7   101.40     LegendNANA
10:00 18.1 11.8 67 0.0 36 7   101.39     LegendNANA
11:00 19.5 12.1 62 0.0 34 11   101.43     LegendNANA
12:00 20.2 11.6 58 0.0 36 8   101.41     LegendNANA
13:00 21.5 11.9 54 0.0 35 8   101.38     LegendNANA
14:00 23.2 11.8 49 0.0 11 4   101.34 25   LegendNANA
15:00 21.9 11.4 51 0.0 6 6   101.31     LegendNANA
16:00 23.0 11.5 48 0.0 9 7   101.27 25   LegendNANA
17:00 22.0 13.0 56 0.0 11 9   101.25 25   LegendNANA
18:00 20.5 14.4 68 0.0 9 8   101.25     LegendNANA
19:00 18.7 14.5 76 0.0 4 2   101.31     LegendNANA
20:00 17.2 14.3 83 0.0 27 3   101.31     LegendNANA
21:00 16.0 13.7 86 0.0 29 3   101.33     LegendNANA
22:00 15.1 13.7 91 0.0 26 1   101.31     LegendNANA
23:00 14.6 13.3 92 0.0 26 2   101.33     LegendNANA

Notes on Data Quality.

Legend

  • E = Estimated
  • M = Missing
  • NA = Not Available*
  • [empty] = Indicates an unobserved value
Date modified: